| time (UTC) | temp F | wind direction | speed knots | gust knots | rain 1hr in | rain 24hr in | rain mn in | humidity % | barometer mb |
| 20260906113013 | 74 | 360 | 0.0 | 0.0 | 0.00 | 0.00 | 0.00 | 90 | 1011.2 |
| 20260906111519 | 74 | 360 | 0.0 | 0.0 | 0.00 | 0.00 | 0.00 | 89 | 1011.1 |
| 20260906110007 | 74 | 360 | 0.0 | 1.7 | 0.00 | 0.00 | 0.00 | 89 | 1011.1 |
| 20260906104530 | 74 | 322 | 0.0 | 1.7 | 0.00 | 0.00 | 0.00 | 89 | 1010.9 |
| 20260906103008 | 74 | 352 | 0.0 | 1.7 | 0.00 | 0.00 | 0.00 | 88 | 1010.8 |
| 20260906101508 | 74 | 321 | 0.0 | 0.9 | 0.00 | 0.00 | 0.00 | 88 | 1010.6 |
| 20260906100011 | 74 | 38 | 0.0 | 1.7 | 0.00 | 0.00 | 0.00 | 88 | 1010.4 |
| 20260906094509 | 74 | 71 | 0.0 | 0.9 | 0.00 | 0.00 | 0.00 | 88 | 1010.6 |
| 20260906093010 | 74 | 126 | 0.0 | 1.7 | 0.00 | 0.00 | 0.00 | 88 | 1010.2 |
| 20260906091515 | 74 | 88 | 0.0 | 0.0 | 0.00 | 0.00 | 0.00 | 87 | 1010.2 |
| 20260906090012 | 74 | 11 | 0.0 | 2.6 | 0.00 | 0.00 | 0.00 | 87 | 1010.1 |
| 20260906084512 | 75 | 5 | 0.0 | 1.7 | 0.00 | 0.00 | 0.00 | 86 | 1010.0 |
| 20260906083013 | 75 | 291 | 0.0 | 1.7 | 0.00 | 0.00 | 0.00 | 86 | 1010.2 |
| 20260906081515 | 75 | 291 | 0.0 | 0.0 | 0.00 | 0.00 | 0.00 | 86 | 1010.2 |
| 20260906080024 | 75 | 278 | 0.0 | 2.6 | 0.00 | 0.00 | 0.00 | 86 | 1010.4 |
| 20260906074516 | 75 | 326 | 0.9 | 3.5 | 0.00 | 0.00 | 0.00 | 86 | 1010.6 |
| 20260906073018 | 75 | 30 | 0.0 | 1.7 | 0.00 | 0.00 | 0.00 | 86 | 1010.4 |
| 20260906071516 | 75 | 349 | 0.0 | 1.7 | 0.00 | 0.00 | 0.00 | 85 | 1010.6 |
| 20260906070019 | 75 | 349 | 0.0 | 1.7 | 0.00 | 0.00 | 0.00 | 85 | 1010.9 |
| 20260906064518 | 76 | 306 | 0.0 | 0.0 | 0.00 | 0.00 | 0.00 | 85 | 1010.9 |
| 20260906063016 | 76 | 39 | 0.0 | 0.9 | 0.00 | 0.00 | 0.00 | 84 | 1011.1 |
| 20260906061525 | 76 | 39 | 0.0 | 0.9 | 0.00 | 0.00 | 0.00 | 83 | 1011.1 |
| 20260906060020 | 77 | 44 | 0.0 | 1.7 | 0.00 | 0.00 | 0.00 | 82 | 1011.0 |
| 20260906054519 | 77 | 32 | 0.0 | 1.7 | 0.00 | 0.00 | 0.00 | 81 | 1011.1 |
| 20260906053020 | 77 | 32 | 0.0 | 0.0 | 0.00 | 0.00 | 0.00 | 81 | 1011.0 |
| 20260906051526 | 77 | 32 | 0.0 | 0.0 | 0.00 | 0.00 | 0.00 | 81 | 1011.3 |
| 20260906050023 | 77 | 32 | 0.0 | 1.7 | 0.00 | 0.00 | 0.00 | 81 | 1011.4 |
| 20260906044519 | 78 | 44 | 0.0 | 1.7 | 0.00 | 0.00 | 0.00 | 81 | 1011.6 |
| 20260906043630 | 78 | 338 | 0.0 | 1.7 | 0.00 | 0.00 | 0.00 | 82 | 1011.7 |
| 20260906043624 | 79 | 33 | 0.0 | 1.7 | 0.00 | 0.00 | 0.00 | 81 | 1011.7 |
| 20260906040027 | 79 | 331 | 1.7 | 3.5 | 0.00 | 0.00 | 0.00 | 80 | 1011.7 |
| 20260906034503 | 80 | 38 | 0.0 | 4.3 | 0.00 | 0.00 | 0.00 | 80 | 1011.7 |
| 20260906033007 | 81 | 325 | 0.9 | 4.3 | 0.00 | 0.00 | 0.00 | 79 | 1011.6 |
| 20260906031507 | 81 | 304 | 0.0 | 1.7 | 0.00 | 0.00 | 0.00 | 79 | 1011.5 |
| 20260906030029 | 82 | 269 | 0.0 | 1.7 | 0.00 | 0.00 | 0.00 | 80 | 1011.7 |
| 20260906024516 | 82 | 176 | 0.0 | 1.7 | 0.00 | 0.00 | 0.00 | 82 | 1011.5 |
| 20260906023004 | 83 | 176 | 0.0 | 1.7 | 0.00 | 0.00 | 0.00 | 84 | 1011.4 |
| 20260906021504 | 83 | 202 | 0.9 | 5.2 | 0.00 | 0.00 | 0.00 | 84 | 1011.0 |
| 20260906020011 | 83 | 317 | 0.0 | 5.2 | 0.00 | 0.00 | 0.00 | 86 | 1011.2 |
| 20260906014531 | 83 | 165 | 0.0 | 4.3 | 0.00 | 0.00 | 0.00 | 86 | 1010.4 |
| 20260906013031 | 84 | 172 | 1.7 | 6.1 | 0.00 | 0.00 | 0.00 | 86 | 1009.0 |
| 20260906011503 | 84 | 169 | 0.9 | 1.7 | 0.00 | 0.00 | 0.00 | 84 | 1009.9 |
| 20260906010004 | 84 | 213 | 0.0 | 2.6 | 0.00 | 0.00 | 0.00 | 85 | 1010.8 |
| 20260906004513 | 84 | 261 | 0.9 | 3.5 | 0.00 | 0.00 | 0.00 | 85 | 1011.5 |
| 20260906003017 | 84 | 203 | 1.7 | 5.2 | 0.00 | 0.00 | 0.00 | 84 | 1011.3 |
| 20260906001524 | 85 | 202 | 0.9 | 7.0 | 0.00 | 0.00 | 0.00 | 83 | 1011.4 |
| 20260906000009 | 85 | 175 | 1.7 | 2.6 | 0.00 | 0.00 | 0.00 | 82 | 1011.5 |
| 20260905234509 | 86 | 175 | 3.5 | 6.1 | 0.00 | 0.00 | 0.00 | 80 | 1011.3 |
| 20260905233039 | 87 | 175 | 1.7 | 3.5 | 0.00 | 0.00 | 0.00 | 79 | 1011.4 |
| 20260905231523 | 88 | 175 | 0.0 | 6.1 | 0.00 | 0.00 | 0.00 | 77 | 1011.4 |
| 20260905230031 | 88 | 175 | 2.6 | 6.1 | 0.00 | 0.00 | 0.00 | 76 | 1011.1 |
| 20260905224545 | 89 | 161 | 3.5 | 5.2 | 0.00 | 0.00 | 0.00 | 74 | 1011.0 |
| 20260905223015 | 90 | 173 | 2.6 | 5.2 | 0.00 | 0.00 | 0.00 | 73 | 1010.9 |
| 20260905221518 | 90 | 180 | 4.3 | 9.6 | 0.00 | 0.00 | 0.00 | 72 | 1010.6 |
| 20260905220028 | 91 | 186 | 3.5 | 8.7 | 0.00 | 0.00 | 0.00 | 70 | 1010.5 |
| 20260905214530 | 92 | 207 | 2.6 | 7.0 | 0.00 | 0.00 | 0.00 | 68 | 1010.4 |
| 20260905213010 | 93 | 207 | 1.7 | 6.1 | 0.00 | 0.00 | 0.00 | 64 | 1010.4 |
| 20260905211519 | 95 | 21 | 0.9 | 1.7 | 0.00 | 0.00 | 0.00 | 54 | 1010.3 |
| 20260905210022 | 94 | 17 | 0.9 | 2.6 | 0.00 | 0.00 | 0.00 | 54 | 1010.1 |
| 20260905204536 | 94 | 52 | 2.6 | 5.2 | 0.00 | 0.00 | 0.00 | 54 | 1010.1 |
| 20260905203030 | 94 | 83 | 1.7 | 3.5 | 0.00 | 0.00 | 0.00 | 56 | 1010.0 |
| 20260905201515 | 93 | 161 | 0.9 | 3.5 | 0.00 | 0.00 | 0.00 | 58 | 1010.1 |
| 20260905200029 | 93 | 213 | 1.7 | 3.5 | 0.00 | 0.00 | 0.00 | 58 | 1010.1 |
| 20260905194530 | 93 | 309 | 0.9 | 4.3 | 0.00 | 0.00 | 0.00 | 59 | 1010.3 |
| 20260905193029 | 93 | 181 | 0.9 | 3.5 | 0.00 | 0.00 | 0.00 | 60 | 1010.4 |
| 20260905191534 | 92 | 5 | 1.7 | 7.0 | 0.00 | 0.00 | 0.00 | 60 | 1010.8 |
| 20260905190016 | 93 | 169 | 0.9 | 3.5 | 0.00 | 0.00 | 0.00 | 60 | 1011.1 |
| 20260905185136 | 92 | 271 | 0.0 | 6.1 | 0.00 | 0.00 | 0.00 | 61 | 1011.5 |
| 20260905185130 | 91 | 268 | 0.9 | 3.5 | 0.00 | 0.00 | 0.00 | 64 | 1011.7 |
| 20260905181546 | 92 | 175 | 0.9 | 2.6 | 0.00 | 0.00 | 0.00 | 65 | 1011.9 |
| 20260905180019 | 91 | 181 | 0.9 | 7.0 | 0.00 | 0.00 | 0.00 | 65 | 1012.0 |
| 20260905174519 | 91 | 175 | 2.6 | 6.1 | 0.00 | 0.00 | 0.00 | 64 | 1012.1 |
| 20260905173028 | 90 | 175 | 0.9 | 2.6 | 0.00 | 0.00 | 0.00 | 65 | 1012.3 |
| 20260905171531 | 90 | 238 | 0.9 | 3.5 | 0.00 | 0.00 | 0.00 | 66 | 1012.6 |
| 20260905170033 | 90 | 302 | 0.9 | 6.1 | 0.00 | 0.00 | 0.00 | 68 | 1012.8 |
| 20260905164535 | 90 | 300 | 1.7 | 3.5 | 0.00 | 0.00 | 0.00 | 68 | 1013.0 |
| 20260905163025 | 88 | 255 | 1.7 | 5.2 | 0.00 | 0.00 | 0.00 | 72 | 1013.4 |
| 20260905161532 | 89 | 226 | 0.0 | 5.2 | 0.00 | 0.00 | 0.00 | 68 | 1013.6 |
| 20260905160034 | 88 | 317 | 1.7 | 2.6 | 0.00 | 0.00 | 0.00 | 72 | 1013.8 |
| 20260905154554 | 87 | 304 | 1.7 | 5.2 | 0.00 | 0.00 | 0.00 | 74 | 1014.0 |
| 20260905153022 | 87 | 251 | 0.9 | 3.5 | 0.00 | 0.00 | 0.00 | 73 | 1014.2 |
| 20260905151505 | 87 | 308 | 0.0 | 5.2 | 0.00 | 0.00 | 0.00 | 77 | 1014.1 |
| 20260905150008 | 85 | 270 | 0.9 | 2.6 | 0.00 | 0.00 | 0.00 | 78 | 1014.3 |
| 20260905144510 | 85 | 288 | 0.9 | 4.3 | 0.00 | 0.00 | 0.00 | 80 | 1014.3 |
| 20260905143017 | 84 | 216 | 0.9 | 3.5 | 0.00 | 0.00 | 0.00 | 81 | 1014.3 |
| 20260905141527 | 83 | 294 | 1.7 | 5.2 | 0.00 | 0.00 | 0.00 | 83 | 1014.3 |
| 20260905140006 | 83 | 177 | 0.9 | 2.6 | 0.00 | 0.00 | 0.00 | 85 | 1014.3 |
| 20260905134509 | 83 | 177 | 0.9 | 5.2 | 0.00 | 0.00 | 0.00 | 86 | 1014.3 |
| 20260905133040 | 82 | 231 | 1.7 | 5.2 | 0.00 | 0.00 | 0.00 | 87 | 1014.4 |
| 20260905131538 | 81 | 217 | 0.9 | 2.6 | 0.00 | 0.00 | 0.00 | 88 | 1014.4 |
| 20260905130039 | 81 | 176 | 0.0 | 2.6 | 0.00 | 0.00 | 0.00 | 90 | 1014.5 |
| 20260905124507 | 80 | 176 | 0.0 | 1.7 | 0.00 | 0.00 | 0.00 | 91 | 1014.4 |
| 20260905123014 | 79 | 176 | 0.0 | 1.7 | 0.00 | 0.00 | 0.00 | 93 | 1014.3 |
| 20260905121533 | 78 | 176 | 0.0 | 2.6 | 0.00 | 0.00 | 0.00 | 93 | 1014.3 |
| 20260905120023 | 77 | 176 | 0.9 | 1.7 | 0.00 | 0.00 | 0.00 | 93 | 1014.2 |
| 20260905114538 | 77 | 176 | 0.0 | 0.0 | 0.00 | 0.00 | 0.00 | 93 | 1014.2 |